Providence, RI

2:48 AM EDT on March 30, 2017 (GMT -0400)
Green State

Weather History for KPVD - July, 2014

Change the Weather History Date:

Wednesday, July 16, 2014

  Actual Average Record
Temperature  
Mean Temperature 73 °F 74 °F  
Max Temperature 76 °F 83 °F 97 °F (1983)
Min Temperature 70 °F 65 °F 52 °F (1954)
Degree Days  
Heating Degree Days 0 0  
Month to date heating degree days 0 0  
Since 1 June heating degree days 13 43  
Since 1 July heating degree days 0 0  
Cooling Degree Days 8 9  
Month to date cooling degree days 174 132  
Year to date cooling degree days 288 290  
Since 1 June cooling degree days 277 264  
Growing Degree Days 22 (Base 50)    
Moisture  
Dew Point 70 °F    
Average Humidity 91    
Maximum Humidity 100    
Minimum Humidity 82    
Precipitation  
Precipitation 0.45 in 0.10 in 0.85 in (2000)
Month to date precipitation 3.32 1.57  
Year to date precipitation 28.48 25.28  
Snow  
Snow 0.00 in 0.00 in 0.00 in (2002)
Month to date snowfall 0.0 0.0  
Since 1 June snowfall 0.0 0.0  
Since 1 July snowfall 0.0 0.0  
Snow Depth 0.00 in    
Sea Level Pressure  
Sea Level Pressure 29.80 in    
Wind  
Wind Speed 7 mph (South)    
Max Wind Speed 16 mph    
Max Gust Speed 20 mph    
Visibility 7 miles    
Events Rain , Thunderstorm    
T = Trace of Precipitation, MM = Missing Value Source: NWS Daily Summary

Daily Weather History Graph

Daily Weather History Graph

Search for Another Location

Airport or City:

Trip Planner

Search our weather history database for the weather conditions in past years. The results will help you decide how hot, cold, wet, or windy it might be!

Date:

Astronomy

Jul. 16, 2014 Rise Set
Actual Time 5:25 AM EDT 8:18 PM EDT
Civil Twilight 4:52 AM EDT 8:50 PM EDT
Nautical Twilight 4:10 AM EDT 9:32 PM EDT
Astronomical Twilight 3:21 AM EDT 10:20 PM EDT
Moon 10:55 PM EDT (7/16) 10:30 AM EDT (7/16)
Length of Visible Light 15h 58m
Length of Day
14h 52m
Waning Gibbous, 76% of the Moon is Illuminated
Jul 16
Waning Gibbous
Jul 18
Last Quarter
Jul 26
New
Aug 3
First Quarter
Aug 10
Full

Hourly Weather History & Observations

Time (EDT) Temp. Dew Point Humidity Pressure Visibility Wind Dir Wind Speed Gust Speed Precip Events Conditions
12:32 AM 72.0 °F 70.0 °F 93% 29.81 in 9.0 mi SSE 9.2 mph - N/A   Scattered Clouds
12:51 AM 72.0 °F 70.0 °F 93% 29.82 in 9.0 mi South 6.9 mph - N/A   Overcast
1:51 AM 71.6 °F 69.8 °F 94% 29.80 in 7.0 mi SSE 4.6 mph - N/A   Overcast
2:51 AM 73.0 °F 72.0 °F 96% 29.79 in 5.0 mi South 10.4 mph - N/A   Overcast
3:51 AM 73.0 °F 71.1 °F 93% 29.77 in 6.0 mi South 11.5 mph - N/A   Overcast
4:25 AM 73.0 °F 70.0 °F 90% 29.78 in 9.0 mi SSW 9.2 mph - N/A   Overcast
4:41 AM 72.0 °F 70.0 °F 93% 29.79 in 9.0 mi SSW 9.2 mph - N/A   Overcast
4:51 AM 71.6 °F 69.8 °F 94% 29.79 in 10.0 mi South 8.1 mph - N/A   Overcast
5:51 AM 73.0 °F 70.0 °F 90% 29.79 in 10.0 mi SSW 4.6 mph - N/A   Overcast
6:06 AM 73.0 °F 70.0 °F 90% 29.79 in 10.0 mi SSW 4.6 mph - N/A   Overcast
6:51 AM 73.0 °F 71.1 °F 93% 29.79 in 7.0 mi SW 4.6 mph - 0.00 in   Light Drizzle
7:51 AM 73.4 °F 71.6 °F 94% 29.78 in 4.0 mi Variable 4.6 mph - N/A Rain Light Rain
8:32 AM 72.0 °F 71.1 °F 97% 29.81 in 1.0 mi South 11.5 mph - 0.00 in Rain Heavy Rain
8:40 AM 72.0 °F 71.1 °F 97% 29.80 in 2.0 mi SW 12.7 mph - 0.11 in Rain , Thunderstorm Heavy Thunderstorms and Rain
8:51 AM 72.0 °F 70.0 °F 93% 29.80 in 2.0 mi SW 9.2 mph - 0.17 in Rain , Thunderstorm Thunderstorms and Rain
9:24 AM 71.1 °F 68.0 °F 90% 29.80 in 2.0 mi SSW 9.2 mph - 0.08 in Rain Rain
9:51 AM 71.1 °F 69.1 °F 93% 29.80 in 2.0 mi South 4.6 mph - 0.16 in Rain Rain
10:18 AM 71.1 °F 69.1 °F 93% 29.80 in 2.0 mi SSE 3.5 mph - 0.08 in Rain Rain
10:26 AM 71.1 °F 70.0 °F 96% 29.80 in 5.0 mi SSE 6.9 mph - 0.09 in Rain Light Rain
10:51 AM 72.0 °F 71.1 °F 97% 29.79 in 8.0 mi South 5.8 mph - 0.11 in Rain Light Rain
10:58 AM 73.0 °F 70.0 °F 90% 29.79 in 7.0 mi South 6.9 mph - 0.00 in Rain Light Rain
11:13 AM 72.0 °F 70.0 °F 93% 29.80 in 10.0 mi South 8.1 mph - 0.00 in Rain Light Rain
11:51 AM 72.0 °F 70.0 °F 93% 29.80 in 10.0 mi SSE 8.1 mph - 0.00 in   Overcast
12:41 PM 72.0 °F 71.1 °F 97% 29.80 in 7.0 mi SSE 6.9 mph - 0.00 in Rain Light Rain
12:51 PM 72.0 °F 71.1 °F 97% 29.80 in 6.0 mi SSE 8.1 mph - 0.00 in Rain Light Rain
1:26 PM 73.0 °F 71.1 °F 93% 29.80 in 10.0 mi South 9.2 mph - 0.00 in   Overcast
1:33 PM 73.9 °F 71.1 °F 91% 29.80 in 10.0 mi SSE 9.2 mph - 0.00 in   Overcast
1:51 PM 73.9 °F 71.1 °F 91% 29.80 in 10.0 mi South 6.9 mph - 0.00 in   Overcast
2:26 PM 75.0 °F 71.1 °F 87% 29.79 in 10.0 mi South 9.2 mph - N/A   Mostly Cloudy
2:51 PM 75.0 °F 71.1 °F 87% 29.79 in 10.0 mi South 10.4 mph - 0.00 in Rain Light Rain
3:07 PM 75.0 °F 71.1 °F 87% 29.79 in 10.0 mi South 11.5 mph - 0.00 in   Overcast
3:51 PM 75.9 °F 71.1 °F 85% 29.78 in 10.0 mi South 9.2 mph - 0.00 in   Overcast
4:51 PM 75.9 °F 70.0 °F 82% 29.79 in 10.0 mi SSW 8.1 mph - N/A   Overcast
5:51 PM 73.9 °F 70.0 °F 87% 29.81 in 10.0 mi South 9.2 mph - 0.00 in   Overcast
6:23 PM 73.9 °F 70.0 °F 87% 29.80 in 10.0 mi SSW 6.9 mph - N/A   Overcast
6:51 PM 73.9 °F 70.0 °F 87% 29.81 in 10.0 mi SSW 6.9 mph - N/A   Overcast
7:51 PM 73.0 °F 70.0 °F 90% 29.81 in 9.0 mi South 3.5 mph - N/A   Overcast
8:51 PM 71.1 °F 70.0 °F 96% 29.83 in 6.0 mi SSE 3.5 mph - N/A   Mostly Cloudy
9:08 PM 71.1 °F 69.1 °F 93% 29.84 in 4.0 mi SE 3.5 mph - N/A   Mostly Cloudy
9:44 PM 71.1 °F 69.1 °F 93% 29.85 in 5.0 mi SSE 5.8 mph - N/A   Mostly Cloudy
9:51 PM 71.1 °F 69.1 °F 93% 29.85 in 5.0 mi South 5.8 mph - N/A   Mostly Cloudy
10:32 PM 71.1 °F 69.1 °F 93% 29.85 in 4.0 mi SSW 3.5 mph - N/A   Mostly Cloudy
10:51 PM 70.0 °F 69.1 °F 97% 29.85 in 4.0 mi SSW 3.5 mph - N/A   Mostly Cloudy
11:51 PM 70.0 °F 69.1 °F 97% 29.87 in 8.0 mi WNW 5.8 mph - N/A   Mostly Cloudy